| time (UTC) | temp C | wind direction | speed KPH | gust KPH | rain 1hr cm | rain 24hr cm | rain mn cm | humidity % | barometer mb |
| 20260505032019 | 10 | 97 | 0.0 | 0.0 | 0.00 | 0.00 | 0.00 | 76 | 1012.8 |
| 20260505031018 | 10 | 113 | 0.0 | 0.0 | 0.00 | 0.00 | 0.00 | 76 | 1012.8 |
| 20260505030018 | 10 | 113 | 0.0 | 0.0 | 0.00 | 0.00 | 0.00 | 76 | 1012.9 |
| 20260505025519 | 10 | 113 | 0.0 | 4.8 | 0.00 | 0.00 | 0.00 | 77 | 1012.8 |
| 20260505025007 | 10 | 114 | 3.2 | 9.7 | 0.00 | 0.00 | 0.00 | 77 | 1012.9 |
| 20260505024519 | 9 | 29 | 0.0 | 0.0 | 0.00 | 0.00 | 0.00 | 77 | 1012.9 |
| 20260505024007 | 9 | 283 | 1.6 | 4.8 | 0.00 | 0.00 | 0.00 | 78 | 1012.9 |
| 20260505023519 | 10 | 284 | 1.6 | 4.8 | 0.00 | 0.00 | 0.00 | 78 | 1012.9 |
| 20260505023018 | 10 | 13 | 0.0 | 0.0 | 0.00 | 0.00 | 0.00 | 77 | 1012.9 |
| 20260505022019 | 9 | 13 | 0.0 | 0.0 | 0.00 | 0.00 | 0.00 | 79 | 1012.9 |
| 20260505021518 | 10 | 13 | 0.0 | 0.0 | 0.00 | 0.00 | 0.00 | 79 | 1012.9 |
| 20260505021018 | 10 | 13 | 0.0 | 0.0 | 0.00 | 0.00 | 0.00 | 80 | 1013.0 |
| 20260505020019 | 10 | 13 | 0.0 | 0.0 | 0.00 | 0.00 | 0.00 | 79 | 1012.9 |
| 20260505015518 | 10 | 13 | 0.0 | 0.0 | 0.00 | 0.00 | 0.00 | 81 | 1012.8 |
| 20260505015018 | 10 | 13 | 0.0 | 0.0 | 0.00 | 0.00 | 0.00 | 80 | 1012.9 |
| 20260505014019 | 10 | 13 | 0.0 | 0.0 | 0.00 | 0.00 | 0.00 | 79 | 1012.9 |
| 20260505013519 | 10 | 13 | 0.0 | 0.0 | 0.00 | 0.00 | 0.00 | 79 | 1013.0 |
| 20260505013019 | 10 | 13 | 0.0 | 0.0 | 0.00 | 0.00 | 0.00 | 79 | 1013.1 |
| 20260505012518 | 10 | 13 | 0.0 | 0.0 | 0.00 | 0.00 | 0.00 | 79 | 1013.1 |
| 20260505012018 | 10 | 13 | 1.6 | 4.8 | 0.00 | 0.00 | 0.00 | 79 | 1013.1 |
| 20260505011518 | 10 | 13 | 1.6 | 4.8 | 0.00 | 0.00 | 0.00 | 80 | 1013.1 |
| 20260505010520 | 10 | 25 | 3.2 | 4.8 | 0.00 | 0.00 | 0.00 | 81 | 1013.2 |
| 20260505005007 | 9 | 25 | 0.0 | 0.0 | 0.00 | 0.00 | 0.00 | 80 | 1013.4 |
| 20260505004508 | 9 | 25 | 1.6 | 4.8 | 0.00 | 0.00 | 0.00 | 80 | 1013.3 |
| 20260505004007 | 9 | 25 | 4.8 | 4.8 | 0.00 | 0.00 | 0.00 | 80 | 1013.4 |
| 20260505003508 | 9 | 25 | 4.8 | 4.8 | 0.00 | 0.00 | 0.00 | 81 | 1013.4 |
| 20260505003007 | 8 | 25 | 3.2 | 4.8 | 0.00 | 0.00 | 0.00 | 81 | 1013.3 |
| 20260505002507 | 8 | 25 | 3.2 | 4.8 | 0.00 | 0.00 | 0.00 | 80 | 1013.2 |
| 20260505002008 | 8 | 12 | 3.2 | 4.8 | 0.00 | 0.00 | 0.00 | 79 | 1013.3 |
| 20260505001507 | 8 | 9 | 4.8 | 4.8 | 0.00 | 0.00 | 0.00 | 80 | 1013.2 |
| 20260505001008 | 8 | 13 | 3.2 | 4.8 | 0.00 | 0.00 | 0.00 | 79 | 1013.2 |
| 20260505000507 | 9 | 24 | 0.0 | 0.0 | 0.00 | 0.00 | 0.00 | 78 | 1013.2 |
| 20260504235509 | 10 | 313 | 0.0 | 0.0 | 0.00 | 0.00 | 0.00 | 76 | 1013.2 |
| 20260504235008 | 10 | 313 | 0.0 | 0.0 | 0.00 | 0.00 | 0.00 | 74 | 1013.2 |
| 20260504234508 | 10 | 273 | 0.0 | 0.0 | 0.00 | 0.00 | 0.00 | 74 | 1013.2 |
| 20260504234007 | 10 | 273 | 0.0 | 0.0 | 0.00 | 0.00 | 0.00 | 74 | 1013.3 |
| 20260504233507 | 10 | 273 | 0.0 | 1.6 | 0.00 | 0.00 | 0.00 | 74 | 1013.3 |
| 20260504233008 | 10 | 273 | 1.6 | 4.8 | 0.00 | 0.00 | 0.00 | 73 | 1013.4 |
| 20260504232507 | 10 | 319 | 0.0 | 0.0 | 0.00 | 0.00 | 0.00 | 73 | 1013.2 |
| 20260504231507 | 10 | 319 | 0.0 | 0.0 | 0.00 | 0.00 | 0.00 | 73 | 1013.1 |
| 20260504231007 | 10 | 319 | 0.0 | 0.0 | 0.00 | 0.00 | 0.00 | 73 | 1013.1 |
| 20260504230507 | 10 | 319 | 0.0 | 0.0 | 0.00 | 0.00 | 0.00 | 73 | 1013.0 |
| 20260504230007 | 10 | 319 | 0.0 | 0.0 | 0.00 | 0.00 | 0.00 | 73 | 1012.9 |
| 20260504225507 | 10 | 319 | 0.0 | 0.0 | 0.00 | 0.00 | 0.00 | 73 | 1013.0 |
| 20260504225007 | 10 | 319 | 0.0 | 1.6 | 0.00 | 0.00 | 0.00 | 72 | 1013.0 |
| 20260504224508 | 10 | 319 | 0.0 | 1.6 | 0.00 | 0.00 | 0.00 | 73 | 1013.1 |
| 20260504224008 | 10 | 319 | 0.0 | 0.0 | 0.00 | 0.00 | 0.00 | 74 | 1013.1 |
| 20260504223007 | 10 | 319 | 3.2 | 4.8 | 0.00 | 0.00 | 0.00 | 75 | 1013.1 |
| 20260504222507 | 10 | 319 | 3.2 | 4.8 | 0.00 | 0.00 | 0.00 | 75 | 1013.1 |
| 20260504222007 | 10 | 303 | 3.2 | 4.8 | 0.00 | 0.00 | 0.00 | 73 | 1013.1 |
| 20260504221507 | 11 | 281 | 0.0 | 4.8 | 0.00 | 0.00 | 0.00 | 72 | 1013.2 |
| 20260504221007 | 11 | 281 | 1.6 | 4.8 | 0.00 | 0.00 | 0.00 | 70 | 1013.2 |
| 20260504220507 | 11 | 282 | 3.2 | 4.8 | 0.00 | 0.00 | 0.00 | 70 | 1013.3 |
| 20260504220008 | 11 | 298 | 4.8 | 9.7 | 0.00 | 0.00 | 0.00 | 71 | 1013.3 |
| 20260504215507 | 11 | 288 | 4.8 | 8.0 | 0.00 | 0.00 | 0.00 | 72 | 1013.3 |
| 20260504214008 | 11 | 298 | 1.6 | 3.2 | 0.00 | 0.00 | 0.00 | 72 | 1013.4 |
| 20260504213507 | 11 | 298 | 0.0 | 0.0 | 0.00 | 0.00 | 0.00 | 72 | 1013.4 |
| 20260504213007 | 11 | 298 | 0.0 | 0.0 | 0.00 | 0.00 | 0.00 | 72 | 1013.3 |
| 20260504212507 | 11 | 298 | 0.0 | 3.2 | 0.00 | 0.00 | 0.00 | 72 | 1013.2 |
| 20260504212007 | 11 | 298 | 1.6 | 3.2 | 0.00 | 0.00 | 0.00 | 71 | 1013.2 |
| 20260504211507 | 11 | 298 | 0.0 | 0.0 | 0.00 | 0.00 | 0.00 | 72 | 1013.1 |
| 20260504211007 | 11 | 298 | 0.0 | 3.2 | 0.00 | 0.00 | 0.00 | 72 | 1013.1 |
| 20260504210507 | 11 | 298 | 3.2 | 4.8 | 0.00 | 0.00 | 0.00 | 72 | 1013.2 |
| 20260504210008 | 11 | 298 | 0.0 | 0.0 | 0.00 | 0.00 | 0.00 | 70 | 1013.1 |
| 20260504205507 | 11 | 298 | 0.0 | 0.0 | 0.00 | 0.00 | 0.00 | 70 | 1013.0 |
| 20260504205007 | 11 | 298 | 0.0 | 3.2 | 0.00 | 0.00 | 0.00 | 70 | 1013.0 |
| 20260504204507 | 11 | 298 | 3.2 | 4.8 | 0.00 | 0.00 | 0.00 | 70 | 1013.0 |
| 20260504204007 | 11 | 298 | 4.8 | 4.8 | 0.00 | 0.00 | 0.00 | 69 | 1013.0 |
| 20260504203507 | 11 | 309 | 4.8 | 8.0 | 0.00 | 0.00 | 0.00 | 70 | 1013.0 |
| 20260504203008 | 11 | 301 | 6.4 | 8.0 | 0.00 | 0.00 | 0.00 | 69 | 1012.9 |
| 20260504202507 | 12 | 307 | 8.0 | 8.0 | 0.00 | 0.00 | 0.00 | 69 | 1012.9 |
| 20260504202006 | 12 | 304 | 6.4 | 12.9 | 0.00 | 0.00 | 0.00 | 66 | 1012.9 |
| 20260504201508 | 12 | 290 | 8.0 | 14.5 | 0.00 | 0.00 | 0.00 | 66 | 1012.8 |
| 20260504201007 | 12 | 284 | 9.7 | 16.1 | 0.00 | 0.00 | 0.00 | 66 | 1012.8 |
| 20260504200507 | 12 | 286 | 9.7 | 14.5 | 0.00 | 0.00 | 0.00 | 67 | 1012.8 |
| 20260504200008 | 12 | 284 | 4.8 | 11.3 | 0.00 | 0.00 | 0.00 | 68 | 1012.7 |
| 20260504195507 | 12 | 283 | 8.0 | 11.3 | 0.00 | 0.00 | 0.00 | 66 | 1012.6 |
| 20260504195007 | 12 | 297 | 4.8 | 8.0 | 0.00 | 0.00 | 0.00 | 66 | 1012.3 |
| 20260504194507 | 12 | 302 | 4.8 | 8.0 | 0.00 | 0.00 | 0.00 | 67 | 1012.2 |
| 20260504194007 | 12 | 297 | 8.0 | 12.9 | 0.00 | 0.00 | 0.00 | 66 | 1012.2 |
| 20260504193507 | 12 | 300 | 6.4 | 11.3 | 0.00 | 0.00 | 0.00 | 67 | 1011.9 |
| 20260504193007 | 12 | 306 | 4.8 | 8.0 | 0.00 | 0.00 | 0.00 | 66 | 1011.7 |
| 20260504192507 | 12 | 307 | 4.8 | 8.0 | 0.00 | 0.00 | 0.00 | 66 | 1011.7 |
| 20260504191007 | 13 | 308 | 8.0 | 11.3 | 0.00 | 0.00 | 0.00 | 63 | 1011.8 |
| 20260504190507 | 13 | 308 | 8.0 | 12.9 | 0.00 | 0.00 | 0.00 | 61 | 1011.8 |
| 20260504190007 | 14 | 306 | 9.7 | 19.3 | 0.00 | 0.00 | 0.00 | 59 | 1011.7 |
| 20260504185507 | 14 | 306 | 12.9 | 20.9 | 0.00 | 0.00 | 0.00 | 58 | 1011.7 |
| 20260504185007 | 14 | 296 | 12.9 | 20.9 | 0.00 | 0.00 | 0.00 | 57 | 1011.7 |
| 20260504184508 | 14 | 294 | 9.7 | 19.3 | 0.00 | 0.00 | 0.00 | 59 | 1011.7 |
| 20260504183507 | 15 | 311 | 11.3 | 19.3 | 0.00 | 0.00 | 0.00 | 57 | 1011.6 |
| 20260504183007 | 15 | 321 | 14.5 | 22.5 | 0.00 | 0.00 | 0.00 | 55 | 1011.6 |
| 20260504182506 | 15 | 317 | 17.7 | 22.5 | 0.00 | 0.00 | 0.00 | 54 | 1011.5 |
| 20260504182006 | 15 | 317 | 17.7 | 27.4 | 0.00 | 0.00 | 0.00 | 55 | 1011.4 |
| 20260504181508 | 16 | 320 | 19.3 | 27.4 | 0.00 | 0.00 | 0.00 | 53 | 1011.4 |
| 20260504181007 | 16 | 321 | 19.3 | 24.1 | 0.00 | 0.00 | 0.00 | 53 | 1011.3 |
| 20260504180507 | 16 | 321 | 17.7 | 27.4 | 0.00 | 0.00 | 0.00 | 54 | 1011.3 |
| 20260504180008 | 16 | 318 | 17.7 | 24.1 | 0.00 | 0.00 | 0.00 | 52 | 1011.2 |
| 20260504175506 | 16 | 312 | 20.9 | 29.0 | 0.00 | 0.00 | 0.00 | 51 | 1011.1 |
| 20260504174507 | 16 | 285 | 17.7 | 25.7 | 0.00 | 0.00 | 0.00 | 51 | 1011.2 |
| 20260504174007 | 16 | 328 | 14.5 | 24.1 | 0.00 | 0.00 | 0.00 | 51 | 1011.1 |
| 20260504173507 | 17 | 306 | 16.1 | 22.5 | 0.00 | 0.00 | 0.00 | 51 | 1011.2 |
| 20260504173007 | 17 | 296 | 14.5 | 24.1 | 0.00 | 0.00 | 0.00 | 53 | 1011.0 |
| 20260504172007 | 17 | 311 | 20.9 | 29.0 | 0.00 | 0.00 | 0.00 | 50 | 1011.0 |
| 20260504171507 | 17 | 314 | 17.7 | 24.1 | 0.00 | 0.00 | 0.00 | 49 | 1011.0 |
| 20260504151007 | 19 | 245 | 14.5 | 29.0 | 0.00 | 0.00 | 0.00 | 35 | 1010.7 |
| 20260504150506 | 19 | 226 | 14.5 | 27.4 | 0.00 | 0.00 | 0.00 | 35 | 1010.7 |
| 20260504141007 | 20 | 236 | 12.9 | 22.5 | 0.00 | 0.00 | 0.00 | 37 | 1011.0 |
| 20260504130507 | 18 | 226 | 11.3 | 32.2 | 0.00 | 0.00 | 0.00 | 43 | 1011.2 |
| 20260504100508 | 15 | 233 | 3.2 | 14.5 | 0.00 | 0.00 | 0.00 | 63 | 1012.6 |
| 20260504082007 | 11 | 163 | 4.8 | 9.7 | 0.00 | 0.00 | 0.00 | 81 | 1012.7 |
| 20260504081508 | 11 | 196 | 4.8 | 9.7 | 0.00 | 0.00 | 0.00 | 81 | 1012.8 |
| 20260504080508 | 11 | 188 | 8.0 | 12.9 | 0.00 | 0.00 | 0.00 | 81 | 1012.7 |
| 20260504050508 | 10 | 142 | 0.0 | 3.2 | 0.00 | 0.33 | 0.00 | 82 | 1011.4 |
| 20260504050008 | 10 | 192 | 0.0 | 3.2 | 0.00 | 0.33 | 0.00 | 82 | 1011.4 |
| 20260504045507 | 10 | 191 | 3.2 | 4.8 | 0.00 | 0.33 | 0.00 | 83 | 1011.3 |
| 20260504045007 | 10 | 194 | 0.0 | 0.0 | 0.00 | 0.33 | 0.00 | 84 | 1011.3 |
| 20260504044007 | 10 | 323 | 0.0 | 0.0 | 0.00 | 0.33 | 0.00 | 85 | 1011.4 |
| 20260504043508 | 9 | 323 | 0.0 | 0.0 | 0.00 | 0.33 | 0.00 | 85 | 1011.4 |
| 20260504043008 | 9 | 323 | 0.0 | 0.0 | 0.00 | 0.33 | 0.00 | 84 | 1011.4 |
| 20260504042507 | 10 | 323 | 0.0 | 0.0 | 0.00 | 0.33 | 0.00 | 84 | 1011.4 |
| 20260504042008 | 10 | 323 | 0.0 | 0.0 | 0.00 | 0.33 | 0.00 | 83 | 1011.4 |
| 20260504041508 | 10 | 323 | 0.0 | 0.0 | 0.00 | 0.33 | 0.00 | 83 | 1011.4 |
| 20260504040508 | 10 | 323 | 0.0 | 0.0 | 0.00 | 0.33 | 0.00 | 83 | 1011.4 |
| 20260504040008 | 10 | 323 | 0.0 | 0.0 | 0.00 | 0.33 | 0.00 | 82 | 1011.5 |
| 20260504035508 | 10 | 323 | 0.0 | 0.0 | 0.00 | 0.33 | 0.00 | 81 | 1011.5 |
| 20260504035007 | 10 | 323 | 0.0 | 0.0 | 0.00 | 0.33 | 0.00 | 82 | 1011.4 |
| 20260504034508 | 10 | 323 | 0.0 | 0.0 | 0.00 | 0.33 | 0.00 | 82 | 1011.5 |
| 20260504034007 | 10 | 323 | 0.0 | 0.0 | 0.00 | 0.33 | 0.00 | 81 | 1011.5 |
| 20260504033507 | 10 | 323 | 0.0 | 0.0 | 0.00 | 0.33 | 0.00 | 81 | 1011.5 |
| 20260504033007 | 10 | 323 | 0.0 | 0.0 | 0.00 | 0.33 | 0.00 | 81 | 1011.5 |
| 20260504032508 | 10 | 323 | 0.0 | 0.0 | 0.00 | 0.33 | 0.00 | 80 | 1011.6 |